• In Kazakhstan
  • List of Countries
  • For 7 days
  • Water Temperature
  • Satellite Maps
  • Weather Map
  • News
  • Weather Widgets
  • user-avatar
    Login

    Hourly Weather Malatya

    Today, 17 August, Thursday

    Time Temperature Precipitation Wind Pressure Humidity
    00:00 +28°C° 0 mm 1 mps 668 mmHg 38%
    01:00 +27°C° 0 mm 1 mps 668 mmHg 40%
    02:00 +27°C° 0 mm 1 mps 668 mmHg 43%
    03:00 +26°C° 0 mm 1 mps 667 mmHg 46%
    04:00 +25°C° 0 mm 1 mps 667 mmHg 48%
    05:00 +25°C° 0 mm 1 mps 667 mmHg 51%
    06:00 +24°C° 0 mm 1 mps 667 mmHg 53%
    07:00 +26°C° 0 mm 1 mps 667 mmHg 47%
    08:00 +27°C° 0 mm 1 mps 668 mmHg 42%
    09:00 +29°C° 0 mm 1 mps 668 mmHg 36%
    10:00 +30°C° 0 mm 1 mps 668 mmHg 32%
    11:00 +31°C° 0 mm 1 mps 668 mmHg 29%
    12:00 +33°C° 0 mm 1 mps 668 mmHg 25%
    13:00 +33°C° 0 mm 1 mps 668 mmHg 23%
    14:00 +35°C° 0 mm 2 mps 668 mmHg 22%
    15:00 +36°C° 0 mm 2 mps 668 mmHg 21%
    16:00 +35°C° 0 mm 2 mps 668 mmHg 22%
    17:00 +35°C° 0 mm 2 mps 668 mmHg 22%
    18:00 +35°C° 0 mm 2 mps 668 mmHg 23%
    19:00 +34°C° 0 mm 2 mps 668 mmHg 25%
    20:00 +32°C° 0 mm 2 mps 668 mmHg 28%
    21:00 +31°C° 0 mm 1 mps 668 mmHg 31%
    22:00 +30°C° 0 mm 1 mps 668 mmHg 33%
    23:00 +29°C° 0 mm 1 mps 668 mmHg 36%

    Tomorrow, 18 August, Friday

    Time Temperature Precipitation Wind Pressure Humidity
    00:00 +29°C° 0 mm 1 mps 668 mmHg 39%
    01:00 +28°C° 0 mm 1 mps 668 mmHg 41%
    02:00 +27°C° 0 mm 1 mps 668 mmHg 43%
    03:00 +26°C° 0 mm 1 mps 668 mmHg 46%
    04:00 +26°C° 0 mm 1 mps 668 mmHg 47%
    05:00 +25°C° 0 mm 1 mps 668 mmHg 49%
    06:00 +25°C° 0 mm 1 mps 668 mmHg 51%
    07:00 +27°C° 0 mm 1 mps 669 mmHg 46%
    08:00 +28°C° 0 mm 1 mps 669 mmHg 40%
    09:00 +30°C° 0 mm 1 mps 670 mmHg 35%
    10:00 +31°C° 0 mm 2 mps 670 mmHg 31%
    11:00 +32°C° 0 mm 2 mps 670 mmHg 26%
    12:00 +35°C° 0 mm 3 mps 670 mmHg 21%
    13:00 +35°C° 0 mm 3 mps 670 mmHg 20%
    14:00 +36°C° 0 mm 3 mps 670 mmHg 18%
    15:00 +37°C° 0 mm 4 mps 670 mmHg 16%
    16:00 +36°C° 0 mm 4 mps 670 mmHg 16%
    17:00 +36°C° 0 mm 4 mps 670 mmHg 17%
    18:00 +36°C° 0 mm 4 mps 670 mmHg 17%
    19:00 +34°C° 0 mm 3 mps 670 mmHg 20%
    20:00 +33°C° 0 mm 3 mps 670 mmHg 22%
    21:00 +30°C° 0 mm 2 mps 670 mmHg 25%
    22:00 +29°C° 0 mm 2 mps 670 mmHg 29%
    23:00 +28°C° 0 mm 2 mps 671 mmHg 33%

    Day after tomorrow, 19 August, Saturday

    Time Temperature Precipitation Wind Pressure Humidity
    00:00 +28°C° 0 mm 1 mps 671 mmHg 37%
    01:00 +27°C° 0 mm 1 mps 670 mmHg 41%
    02:00 +26°C° 0 mm 1 mps 670 mmHg 44%
    03:00 +25°C° 0 mm 1 mps 670 mmHg 48%
    04:00 +25°C° 0 mm 1 mps 670 mmHg 50%
    05:00 +22°C° 0 mm 0 mps 670 mmHg 53%
    06:00 +22°C° 0 mm 0 mps 670 mmHg 56%
    07:00 +25°C° 0 mm 1 mps 671 mmHg 49%
    08:00 +27°C° 0 mm 1 mps 671 mmHg 42%
    09:00 +29°C° 0 mm 1 mps 672 mmHg 35%
    10:00 +31°C° 0 mm 2 mps 672 mmHg 30%
    11:00 +32°C° 0 mm 2 mps 672 mmHg 24%
    12:00 +34°C° 0 mm 2 mps 672 mmHg 19%
    13:00 +35°C° 0 mm 2 mps 672 mmHg 17%
    14:00 +36°C° 0 mm 3 mps 672 mmHg 15%
    15:00 +37°C° 0 mm 3 mps 672 mmHg 13%
    16:00 +36°C° 0 mm 3 mps 672 mmHg 13%
    17:00 +36°C° 0 mm 3 mps 672 mmHg 13%
    18:00 +36°C° 0 mm 3 mps 672 mmHg 13%
    19:00 +34°C° 0 mm 3 mps 672 mmHg 15%
    20:00 +31°C° 0 mm 2 mps 672 mmHg 18%
    21:00 +30°C° 0 mm 2 mps 672 mmHg 20%
    22:00 +29°C° 0 mm 2 mps 672 mmHg 23%
    23:00 +28°C° 0 mm 1 mps 671 mmHg 26%

    20 August, Sunday

    Time Temperature Precipitation Wind Pressure Humidity
    00:00 +27°C° 0 mm 1 mps 671 mmHg 29%
    01:00 +26°C° 0 mm 1 mps 671 mmHg 31%
    02:00 +25°C° 0 mm 1 mps 671 mmHg 34%
    03:00 +25°C° 0 mm 1 mps 671 mmHg 37%
    04:00 +24°C° 0 mm 1 mps 670 mmHg 39%
    05:00 +23°C° 0 mm 1 mps 670 mmHg 40%
    06:00 +23°C° 0 mm 1 mps 670 mmHg 42%
    07:00 +25°C° 0 mm 1 mps 671 mmHg 36%
    08:00 +27°C° 0 mm 1 mps 671 mmHg 31%
    09:00 +29°C° 0 mm 1 mps 672 mmHg 26%
    10:00 +31°C° 0 mm 1 mps 672 mmHg 22%
    11:00 +32°C° 0 mm 2 mps 672 mmHg 17%
    12:00 +35°C° 0 mm 2 mps 672 mmHg 13%
    13:00 +36°C° 0 mm 3 mps 672 mmHg 12%
    14:00 +36°C° 0 mm 3 mps 672 mmHg 10%
    15:00 +37°C° 0 mm 4 mps 672 mmHg 9%
    16:00 +37°C° 0 mm 4 mps 672 mmHg 9%
    17:00 +37°C° 0 mm 3 mps 671 mmHg 9%
    18:00 +36°C° 0 mm 3 mps 671 mmHg 9%
    19:00 +34°C° 0 mm 3 mps 671 mmHg 11%
    20:00 +31°C° 0 mm 2 mps 671 mmHg 13%
    21:00 +29°C° 0 mm 2 mps 671 mmHg 15%
    22:00 +28°C° 0 mm 1 mps 671 mmHg 16%
    23:00 +27°C° 0 mm 1 mps 671 mmHg 18%

    21 August, Monday

    Time Temperature Precipitation Wind Pressure Humidity
    00:00 +26°C° 0 mm 1 mps 670 mmHg 19%
    01:00 +26°C° 0 mm 1 mps 670 mmHg 20%
    02:00 +25°C° 0 mm 1 mps 670 mmHg 21%
    03:00 +24°C° 0 mm 1 mps 670 mmHg 22%
    04:00 +24°C° 0 mm 1 mps 670 mmHg 23%
    05:00 +23°C° 0 mm 1 mps 670 mmHg 24%
    06:00 +21°C° 0 mm 0 mps 670 mmHg 25%
    07:00 +25°C° 0 mm 1 mps 670 mmHg 21%
    08:00 +28°C° 0 mm 1 mps 671 mmHg 17%
    09:00 +31°C° 0 mm 1 mps 672 mmHg 13%
    10:00 +32°C° 0 mm 2 mps 672 mmHg 13%
    11:00 +35°C° 0 mm 2 mps 672 mmHg 14%
    12:00 +36°C° 0 mm 3 mps 672 mmHg 14%
    13:00 +37°C° 0 mm 3 mps 672 mmHg 14%
    14:00 +38°C° 0 mm 4 mps 671 mmHg 14%
    15:00 +38°C° 0 mm 4 mps 671 mmHg 14%
    16:00 +38°C° 0 mm 4 mps 671 mmHg 14%
    17:00 +38°C° 0 mm 4 mps 671 mmHg 15%
    18:00 +37°C° 0 mm 4 mps 670 mmHg 15%
    19:00 +36°C° 0 mm 3 mps 670 mmHg 17%
    20:00 +34°C° 0 mm 3 mps 670 mmHg 19%
    21:00 +31°C° 0 mm 2 mps 670 mmHg 22%
    22:00 +30°C° 0 mm 2 mps 670 mmHg 23%
    23:00 +29°C° 0 mm 2 mps 670 mmHg 24%

    22 August, Tuesday

    Time Temperature Precipitation Wind Pressure Humidity
    00:00 +28°C° 0 mm 1 mps 670 mmHg 26%
    01:00 +27°C° 0 mm 1 mps 670 mmHg 27%
    02:00 +26°C° 0 mm 1 mps 669 mmHg 28%
    03:00 +26°C° 0 mm 1 mps 669 mmHg 29%
    04:00 +25°C° 0 mm 1 mps 669 mmHg 29%
    05:00 +25°C° 0 mm 1 mps 669 mmHg 30%
    06:00 +24°C° 0 mm 1 mps 669 mmHg 31%
    07:00 +26°C° 0 mm 1 mps 670 mmHg 27%
    08:00 +29°C° 0 mm 1 mps 670 mmHg 23%
    09:00 +31°C° 0 mm 1 mps 671 mmHg 19%
    10:00 +32°C° 0 mm 1 mps 671 mmHg 16%
    11:00 +34°C° 0 mm 1 mps 671 mmHg 13%
    12:00 +35°C° 0 mm 1 mps 671 mmHg 11%
    13:00 +36°C° 0 mm 1 mps 671 mmHg 9%
    14:00 +38°C° 0 mm 2 mps 670 mmHg 8%
    15:00 +39°C° 0 mm 2 mps 670 mmHg 7%
    16:00 +38°C° 0 mm 2 mps 670 mmHg 7%
    17:00 +38°C° 0 mm 2 mps 670 mmHg 7%
    18:00 +38°C° 0 mm 2 mps 670 mmHg 7%
    19:00 +35°C° 0 mm 1 mps 669 mmHg 9%
    20:00 +32°C° 0 mm 1 mps 669 mmHg 12%
    21:00 +30°C° 0 mm 1 mps 669 mmHg 14%
    22:00 +29°C° 0 mm 1 mps 669 mmHg 15%
    23:00 +29°C° 0 mm 1 mps 669 mmHg 16%
    Show more